GPS BIIF-10

Last updated on Wed Jul 09 2025 00:02:32 GMT+0000 (Coordinated Universal Time)

1 40730U 15033A 25189.20467508 -.00000026 00000+0 00000+0 0 9990 2 40730 54.2590 281.2517 0104087 25.2157 335.3375 2.00573920 73095
UTC large
Height (km)
Speed (km/s)
/
Latitude / Longitude
Inclination (degrees)
Orbital Period (minutes)
Azimuth
Elevation
Range (km)
Doppler Factor

Next 0 passes for location: London (51.5072 / 0.1276)

Sorry there are no passes over London.